sat.trackr.live / text

‹ back to catalog

ELEVATION-1

NORAD 62677 · 2025-009BW

PAYLOAD ACTIVE UNKNOWN

§ Identity

Operator
Country
UK
Launch date
2025-01-14
Launch site
AFWTR
Launch vehicle
Mass (kg)
RCS (m²)

External: N2YO · Heavens-Above · Gunter

§ Orbital elements

Epoch: 2026-09-22T16:45:35.064864Z

Period
93.09 min
Inclination
97.3752°
Eccentricity
0.0002323
Mean motion
15.46830563 rev/d
Perigee alt
424.4 km
Apogee alt
427.6 km
Semi-major
6,804.1 km
B*
4.0995e-4
RAAN
352.3843°
Arg perigee
328.3332°
Mean anomaly
31.7777°
Rev number
15,187

§ Raw data

ELEVATION-11 62677U 25009BW  26265.69832251  .00020511  00000+0  40995-3 0  99992 62677  97.3752 352.3843 0002323 328.3332  31.7777 15.46830563151870

JSON: /api/v1/satellites/62677 · /tle

For live sub-satellite position, see the globe view (requires WebGL).

§ Visibility from observer

Set your observer location to see the next 7 days of passes ≥ 10°. The values pass through the URL so the page stays shareable.

No JS? Fill the form by hand. The geolocation button needs JavaScript.

§ Radio — SatNOGS DB

ModeDescriptionDownlinkUplink
FM Mode S - Transmitter 2.246 GHz
FSK Mode U - Transmitter 400.200 MHz

2 transmitters · refreshed weekly from db.satnogs.org